OPS 4682 DEB, 51493

Orbit data source: Space-Track

OPS 4682 DEB, 51493 is space debris in LEO originally from a launch on Sat, 03 Apr 1965 UTC launched from the Air Force Western Test Range (AFWTR). Debris objects in space refer to the collection of defunct objects orbiting the Earth. Examples of debris include non-operational satellites, rocket bodies, and fragments generated from explosions, collisions, or faulty payload assembly.

Loading next visibility...
Identifier
51493, 1965-027GD
Orbit
LEO
Country
Flag of USUS
Related business
Manufacturer
Unknown
Mission
Spacecraft
Bus & Motor
Unknown
Mass
Unknown
Launch date (UTC)
1965-04-03 (61 years ago)
Launch vehicle
Unknown
Launch site
Air Force Western Test Range (AFWTR)
Object type
Payload
Rocket body
Debris
Shape & HBR
Unknown
Radar Cross Section
Small (<0.1 m²)

Expand to show TLE details & history
Last TLE update: 2 days ago

TLE from 2 days ago
0 OPS 4682 DEB
1 51493U 65027GD  26207.15531995  .00000345  00000-0  11872-2 0  9990
2 51493  90.2451  12.1658 0029930  83.4441 277.0084 12.95761080411682
Epoch: 2026-07-26T03:43Z
TLE epoch observation values (Epoch: 2026-07-26T03:43:39.643Z)
Latitude
-0.00009°
Longitude
12.39331°
Altitude
1,278.889 km
Speed
7.218 km/s
True Right ascension
00h 48m 39s
True Declination
0° 00' 00"
Sunlit
Object was in daylight at epoch
Visualization orbit readout
Latitude
Unknown
Longitude
Unknown
Altitude
Unknown
Speed
Unknown
Apparent Right ascension
Unknown
Apparent Declination
Unknown
Sunlit
N/A
Visualization observer readout
Local Sidereal Time
13:09:14
Azimuth
Unknown
Elevation
Unknown
Doppler factor
Unknown
Orbital elements
Apogee altitude
1,298.782 km
Perigee altitude
1,252.965 km
Semi-major axis
7,654.01 km
Eccentricity
0.00299
Inclination
90.2451°
RAAN
12.1658°
Arg. of periapsis
83.4441°
True anomaly
276.66784°
Mean anomaly
277.0084°
Eccentric anomaly
276.83813°
Mean motion
3.24123 °/min
Orbital period
111.07 mins
BSTAR
0.0011872
Loading maneuver chart data...
Computing Atmospheric mass density...
Loading historical data...
Loading historical data...
Loading historical data...
Loading historical data...
Loading historical data...
Loading historical data...
Loading historical data...

Documentation

Showing up to 5 results
|